Terminal Aerodrome Forecast
Issued by NWS

Home | Current Version | Previous Version | Text Only | Print | Product List | Glossary Off
Versions: 1 2 3 4 5 6 7 8 9 10 11 12 13 14 15 16 17 18 19 20 21 22 23 24 25 26 27 28 29 30 31

982
FTUS43 KLOT 182049 AAB
TAFDPA
TAF AMD
KDPA 182049Z 1821/1918 22012G16KT P6SM BKN009
     FM190000 22006KT 4SM BR BKN009
     FM190600 21005KT 1SM BR OVC006
     FM191500 16008KT 6SM BR SCT006 BKN100=

USA.gov is the U.S. government's official web portal to all federal, state and local government web resources and services.